[[{"header":{"parameterUnit":"m.s-1","parameterCategory":1,"la1":30.2991,"la2":30.254,"lo1":-89.0895,"lo2":-89.0444,"dy":0.0017,"dx":0.0017,"nx":28,"ny":28,"refTime":"2023-08-06T09:00:00:Z","depth":0,"parameterNumber":2,"parameterNumberName":"U-component_of_WINDS"},"data":[0,0,0,0,0,0,0,0,0,0,0,0,0,0,0,0,0,0,0,0,0,0,0,0,0,0,0,0,0,0,0,0,0,0,0,0,0,0,0,0,0,0,0,0,0,0,0,0,0,0,0,0,0,0,0,0,0,0,4.5876,4.5877,0,4.5993,4.5995,4.5996,4.5926,4.5922,4.5919,4.5916,4.6035,4.6042,4.6048,0,0,0,0,0,0,0,0,0,0,0,0,0,4.5588,4.5594,4.5876,4.5877,4.5879,4.5993,4.5995,4.5996,4.5926,4.5922,4.5918,4.5914,4.6033,4.6041,4.6048,0,0,0,0,0,0,0,0,0,0,0,0,0,4.571,4.5596,4.5876,4.5858,4.5857,4.5993,4.5995,4.5997,4.5927,4.5922,4.5917,4.5912,4.6031,4.604,4.6049,4.6209,0,0,4.6078,4.6083,0,0,0,0,0,0,0,0,4.5704,4.5721,4.5859,4.5859,4.5859,4.594,4.5937,4.6068,4.5928,4.5901,4.5916,4.591,4.6008,4.6019,4.6052,4.6215,4.622,4.6079,4.6085,4.6089,4.6092,0,0,0,0,0,0,0,4.5695,4.5716,4.5922,4.5861,4.5861,4.5843,4.5855,4.5962,4.5981,4.5903,4.5898,4.5913,4.6007,4.6043,4.6054,4.6222,4.6079,4.6087,4.6093,4.6097,4.6518,4.6524,0,0,0,0,0,0,4.5688,4.5709,4.5919,4.5926,4.5767,4.5852,4.5865,4.5919,4.598,4.5984,4.5917,4.5909,4.6029,4.6043,4.6058,4.6247,4.6089,4.6098,4.6103,4.6513,4.652,4.6526,0,0,0,0,0,0,4.5682,4.5708,4.5914,4.5816,4.5841,4.5863,4.5923,4.5924,4.596,4.599,4.5993,4.595,4.6026,4.6045,4.6171,4.625,4.6102,4.6111,4.6507,4.6515,4.6523,4.6627,0,0,0,0,0,0,4.5675,4.5706,4.5768,4.5818,4.5847,4.6026,4.5928,4.593,4.5977,4.5967,4.6023,4.6027,4.6023,4.6158,4.6181,4.626,4.6118,4.65,4.651,4.652,4.6616,4.6637,4.6656,0,0,0,0,0,4.5664,4.5793,4.5771,4.5797,4.5924,4.6031,4.6047,4.604,4.5983,4.6045,4.6064,4.6025,4.6238,4.6171,4.6197,4.628,4.6495,4.6507,4.6519,4.6607,4.6633,4.6655,0,0,0,0,0,0,4.5751,4.5799,4.5776,4.5924,4.5974,4.6019,4.6096,4.6068,4.6135,4.6124,4.6112,4.6125,4.6257,4.6282,4.6206,4.6436,4.6357,4.6375,4.6415,4.644,4.6459,4.645,4.6126,0,0,0,0,0,4.5788,4.5871,4.5908,4.6036,4.6062,4.6075,4.6122,4.6112,4.6163,4.6183,4.6212,4.6263,4.634,4.6392,4.6466,4.662,4.6629,4.669,4.6709,4.6725,4.674,4.6821,4.6847,4.6566,4.6566,4.6566,0,0,4.5864,4.5901,4.5954,4.6054,4.6092,4.6177,4.6093,4.6188,4.6251,4.6198,4.6318,4.6341,4.6397,4.6537,4.6601,4.6562,4.682,4.6741,4.6754,4.676,4.6836,4.6863,4.6886,4.6575,4.6573,4.6572,0,0,4.6046,4.6083,4.6192,4.6231,4.6288,4.6296,4.6322,4.6371,4.6384,4.6505,4.6466,4.654,4.6676,4.6716,4.6754,4.6949,4.6915,4.6974,4.7075,4.7154,4.7176,4.7195,4.7262,4.7287,4.6989,4.6989,4.6989,0,4.6133,4.6261,4.6251,4.6348,4.6392,4.6348,4.6457,4.6495,4.6574,4.6605,4.6561,4.6727,4.6762,4.691,4.6957,4.6991,4.7018,4.6966,4.7174,4.7193,4.7211,4.7275,4.73,4.6996,4.6995,4.6994,4.6994,0,4.6364,4.6453,4.6534,4.661,4.6663,4.6766,4.6771,4.6826,4.6811,4.6823,4.6946,4.6985,4.7065,4.71,4.7087,4.7245,4.7219,4.7175,4.7094,4.7244,4.7304,4.7328,4.7005,4.7003,4.7001,4.6999,0,0,4.6604,4.6672,4.6702,4.6734,4.6794,4.6862,4.6962,4.7039,4.7085,4.7141,4.7223,4.7337,4.7296,4.7339,4.733,4.74,4.7548,4.7346,4.7347,4.738,4.7722,4.7753,4.7781,4.7527,4.7531,4.7535,4.7716,0,4.6787,4.6961,4.6954,4.7116,4.7197,4.7155,4.7242,4.7287,4.73,4.737,4.7385,4.7465,4.7406,4.7431,4.7498,4.7516,4.7616,4.7503,4.7601,4.7604,4.7586,4.7813,4.7847,4.8016,4.7739,4.7743,4.7746,0,4.7024,4.7086,4.7256,4.7301,4.7334,4.7412,4.7481,4.7549,4.7599,4.7603,4.7651,4.7631,4.773,4.7648,4.7784,4.7707,4.7747,4.7761,4.7768,4.7775,4.7683,4.7823,4.807,4.8094,4.7783,4.778,4.7778,0,4.7178,4.7305,4.7422,4.7452,4.7508,4.7563,4.7589,4.7634,4.768,4.774,4.7769,4.7841,4.788,4.7935,4.7934,4.7875,4.807,4.7989,4.8075,4.8075,4.8116,4.8113,4.837,4.8146,4.8146,4.8145,4.8145,0,4.7382,4.7487,4.7492,4.7564,4.7679,4.767,4.7784,4.7805,4.7844,4.7918,4.7888,4.7957,4.7953,4.8023,4.8023,4.8133,4.8152,4.8157,4.8155,4.8159,4.8158,4.8183,4.817,4.8152,4.8151,4.8149,4.8148,0,4.7574,4.7581,4.7706,4.7748,4.7761,4.7844,4.788,4.7947,4.7957,4.8051,4.8073,4.8089,4.817,4.8175,4.8269,4.8268,4.8402,4.8388,4.8385,4.8381,4.8466,4.8457,4.8746,4.8782,4.8537,4.854,4.8542,0,4.7702,4.7782,4.7832,4.7879,4.7908,4.7985,4.8031,4.8025,4.8075,4.8136,4.8195,4.8273,4.8335,4.8466,4.8486,4.8557,4.8543,4.864,4.8554,4.8554,4.8542,4.8536,4.8542,4.8656,4.8659,4.8661,4.8663,0,4.7929,4.7928,4.7996,4.8065,4.8121,4.8176,4.8226,4.8266,4.8266,4.8323,4.8405,4.8453,4.8548,4.8625,4.8694,4.8719,4.8691,4.869,4.8713,4.8716,4.8709,4.8711,4.8428,4.8683,4.8681,4.8679,4.8678,4.8677,4.8091,4.8158,4.8203,4.828,4.8317,4.8364,4.8428,4.8446,4.8515,4.8591,4.8584,4.8674,4.8719,4.8808,4.884,4.8909,4.8876,4.8911,4.8919,4.8927,4.8934,4.87,4.8922,4.8922,4.8921,4.8921,4.892,0,4.8313,4.834,4.841,4.8481,4.854,4.8508,4.8562,4.8613,4.8693,4.8738,4.8799,4.8892,4.8966,4.8991,4.9063,4.9114,4.9102,4.9132,4.9127,4.9133,4.8961,4.8933,4.914,4.914,4.914,4.914,4.914,4.914,4.8436,4.8547,4.8551,4.868,4.8706,4.8794,4.8827,4.8869,4.8905,4.901,4.9071,4.9087,4.9123,4.9196,4.9262,4.9267,4.9294,4.933,4.9329,4.9168,4.9146,4.9124,4.9097,4.9336,4.9336,4.9495,4.9496,4.9497]},{"header":{"parameterUnit":"m.s-1","parameterCategory":1,"la1":30.2991,"la2":30.254,"lo1":-89.0895,"lo2":-89.0444,"dy":0.0017,"dx":0.0017,"nx":28,"ny":28,"refTime":"2023-08-06T09:00:00:Z","depth":0,"parameterNumber":3,"parameterNumberName":"V-component_of_WINDS"},"data":[0,0,0,0,0,0,0,0,0,0,0,0,0,0,0,0,0,0,0,0,0,0,0,0,0,0,0,0,0,0,0,0,0,0,0,0,0,0,0,0,0,0,0,0,0,0,0,0,0,0,0,0,0,0,0,0,0,0,2.5033,2.5034,0,2.5086,2.5086,2.5087,2.5074,2.5073,2.5072,2.5071,2.5121,2.5123,2.5125,0,0,0,0,0,0,0,0,0,0,0,0,0,2.4917,2.4919,2.5033,2.5034,2.5035,2.5086,2.5086,2.5087,2.5074,2.5073,2.5072,2.507,2.512,2.5123,2.5126,0,0,0,0,0,0,0,0,0,0,0,0,0,2.4968,2.492,2.5033,2.5034,2.5035,2.5086,2.5086,2.5087,2.5074,2.5073,2.5071,2.507,2.5119,2.5123,2.5126,2.5178,0,0,2.5136,2.5138,0,0,0,0,0,0,0,0,2.4965,2.4973,2.5033,2.5034,2.5035,2.5072,2.5064,2.5117,2.5075,2.5059,2.5071,2.5069,2.5106,2.511,2.5123,2.518,2.5182,2.5137,2.5139,2.514,2.5141,0,0,0,0,0,0,0,2.4962,2.497,2.5054,2.5034,2.5035,2.5031,2.5036,2.5074,2.509,2.506,2.506,2.5066,2.5106,2.512,2.5124,2.5183,2.5137,2.514,2.5142,2.5143,2.5283,2.5284,0,0,0,0,0,0,2.4958,2.4967,2.5052,2.5055,2.4996,2.5034,2.504,2.5061,2.509,2.5093,2.5068,2.5065,2.5115,2.512,2.5126,2.5187,2.514,2.5143,2.5145,2.5281,2.5283,2.5285,0,0,0,0,0,0,2.4956,2.4966,2.505,2.5011,2.5022,2.5038,2.5062,2.5063,2.5077,2.5095,2.5098,2.5079,2.5114,2.5121,2.5165,2.5189,2.5145,2.5148,2.5279,2.5282,2.5284,2.531,0,0,0,0,0,0,2.4953,2.4965,2.4986,2.5012,2.5024,2.5089,2.5063,2.5065,2.5084,2.5082,2.5107,2.5109,2.5113,2.516,2.5168,2.5192,2.5151,2.5277,2.528,2.5283,2.5307,2.5313,2.5318,0,0,0,0,0,2.4949,2.4991,2.4987,2.4998,2.505,2.5091,2.5098,2.5102,2.5086,2.5106,2.5117,2.5109,2.5185,2.5164,2.5174,2.5199,2.5275,2.5279,2.5283,2.5305,2.5312,2.5318,0,0,0,0,0,0,2.4966,2.4994,2.4991,2.5043,2.5065,2.5089,2.5114,2.511,2.5136,2.5132,2.5136,2.5141,2.5186,2.5197,2.5174,2.525,2.5227,2.5233,2.5241,2.5248,2.5254,2.5249,2.5154,0,0,0,0,0,2.4977,2.5009,2.5031,2.5075,2.5086,2.5098,2.5116,2.5118,2.514,2.5149,2.5163,2.5184,2.5212,2.5231,2.5258,2.5309,2.5313,2.5331,2.5337,2.5341,2.5346,2.5372,2.538,2.5297,2.5297,2.5297,0,0,2.4998,2.5017,2.5037,2.5079,2.5096,2.5127,2.5106,2.5141,2.5163,2.5154,2.5196,2.5207,2.523,2.5277,2.5299,2.5288,2.537,2.5346,2.5349,2.5352,2.5377,2.5384,2.5391,2.5299,2.5299,2.5299,0,0,2.5052,2.5071,2.5109,2.5126,2.5153,2.5161,2.517,2.5194,2.5202,2.5244,2.5237,2.5263,2.5313,2.5329,2.5344,2.5404,2.5396,2.5413,2.5441,2.5467,2.5473,2.5479,2.5499,2.5506,2.5417,2.5417,2.5417,0,2.5075,2.5123,2.5128,2.5164,2.5181,2.5175,2.5212,2.5229,2.5262,2.5274,2.5262,2.5323,2.5338,2.5388,2.5403,2.5416,2.5425,2.5409,2.5472,2.5478,2.5483,2.5502,2.551,2.5419,2.5419,2.5419,2.5418,0,2.5149,2.5182,2.521,2.5243,2.5264,2.53,2.5309,2.533,2.5329,2.5338,2.538,2.5398,2.5429,2.5441,2.544,2.549,2.5483,2.5472,2.5449,2.5493,2.5511,2.5518,2.5422,2.5421,2.542,2.542,0,0,2.5216,2.5252,2.5261,2.5276,2.5304,2.533,2.5365,2.5395,2.5412,2.5435,2.5463,2.5505,2.5494,2.5511,2.5512,2.5535,2.5579,2.552,2.5521,2.553,2.5634,2.5641,2.565,2.5575,2.5576,2.5577,2.5631,0,2.5272,2.5335,2.534,2.5396,2.5426,2.542,2.545,2.547,2.5479,2.5504,2.5514,2.5543,2.5527,2.5537,2.5559,2.5569,2.56,2.5565,2.5599,2.56,2.5593,2.5659,2.5668,2.5718,2.5638,2.564,2.5641,0,2.5346,2.5372,2.5431,2.5454,2.5467,2.5494,2.5522,2.5547,2.5569,2.5573,2.5592,2.559,2.5624,2.5601,2.5647,2.5623,2.5637,2.5644,2.5646,2.5649,2.5623,2.5662,2.5734,2.5741,2.5652,2.5651,2.565,0,2.5387,2.5437,2.5478,2.5491,2.552,2.5539,2.5551,2.5571,2.5589,2.5613,2.5624,2.5651,2.5666,2.5686,2.5691,2.5674,2.5736,2.5714,2.574,2.5739,2.5752,2.5751,2.5826,2.5763,2.5763,2.5763,2.5763,0,2.5448,2.5484,2.5497,2.5523,2.5562,2.5568,2.5606,2.5617,2.5635,2.5662,2.5658,2.5682,2.5687,2.5712,2.5716,2.5753,2.576,2.5763,2.5764,2.5763,2.5762,2.5772,2.5768,2.5765,2.5765,2.5764,2.5764,0,2.5501,2.5511,2.5556,2.5579,2.5586,2.5614,2.5633,2.5657,2.5665,2.5698,2.5706,2.5719,2.5748,2.5755,2.5789,2.5792,2.5835,2.5832,2.5828,2.5827,2.5852,2.5849,2.5935,2.5945,2.5877,2.5877,2.5878,0,2.5539,2.5566,2.5593,2.5611,2.5624,2.5653,2.5671,2.5677,2.5696,2.5722,2.5742,2.5771,2.5794,2.5841,2.5852,2.5878,2.5875,2.5903,2.5879,2.5877,2.5874,2.5872,2.5874,2.5908,2.5908,2.5909,2.5909,0,2.5604,2.5608,2.5635,2.5664,2.5686,2.5708,2.5729,2.5744,2.5752,2.5773,2.5804,2.5822,2.5857,2.5885,2.5911,2.5922,2.5917,2.5917,2.5924,2.5923,2.5919,2.592,2.5839,2.5915,2.5914,2.5914,2.5914,2.5913,2.565,2.5674,2.5696,2.5726,2.5743,2.5763,2.5786,2.5797,2.5823,2.5853,2.5854,2.5887,2.5906,2.5941,2.5953,2.5978,2.5969,2.5979,2.5982,2.5984,2.5986,2.5916,2.5983,2.5982,2.5982,2.5982,2.5982,0,2.5714,2.5728,2.5756,2.5786,2.5809,2.5803,2.5826,2.5846,2.5875,2.5894,2.5917,2.5951,2.5978,2.5992,2.6018,2.6035,2.6033,2.6041,2.6039,2.6042,2.5993,2.5983,2.6042,2.6042,2.6042,2.6042,2.6042,2.6042,2.575,2.579,2.5796,2.5844,2.5857,2.589,2.5903,2.5921,2.5936,2.5975,2.5998,2.6007,2.6023,2.605,2.6074,2.6077,2.6087,2.6096,2.6098,2.6052,2.6045,2.604,2.6031,2.6099,2.6099,2.6145,2.6145,2.6145]}]]